Weather History for KBLF - May, 2013

Change the Weather History Date:

Friday, May 17, 2013

  Actual Average Record
Temperature  
Mean Temperature 69 °F 63 °F  
Max Temperature 80 °F 72 °F 89 °F (2006)
Min Temperature 57 °F 53 °F 35 °F (1973)
Degree Days  
Heating Degree Days 0 4  
Month to date heating degree days 122 92  
Since 1 July heating degree days 4650 4522  
Cooling Degree Days 4 2  
Month to date cooling degree days 20 25  
Year to date cooling degree days 47 53  
Growing Degree Days 18 (Base 50)    
Moisture  
Dew Point 54 °F    
Average Humidity 60    
Maximum Humidity 86    
Minimum Humidity 33    
Precipitation  
Precipitation 0.01 in 0.13 in 2.40 in (2001)
Month to date precipitation 1.82 2.27  
Year to date precipitation 17.12 14.78  
Snow  
Snow 0.00 in - - ()
Month to date snowfall 0.0  
Since 1 July snowfall 56.0  
Snow Depth 0.00 in    
Sea Level Pressure  
Sea Level Pressure 30.07 in    
Wind  
Wind Speed 2 mph (WSW)    
Max Wind Speed 10 mph    
Max Gust Speed 14 mph    
Visibility 10 miles    
Events Rain , Thunderstorm    
T = Trace of Precipitation, MM = Missing Value Source: NWS Daily Summary

Daily Weather History Graph

Daily Weather History Graph

Search for Another Location

Airport or City:

Trip Planner

Search our weather history database for the weather conditions in past years. The results will help you decide how hot, cold, wet, or windy it might be!

Date:

Astronomy

May. 17, 2013 Rise Set
Actual Time 6:14 AM EDT 8:28 PM EDT
Civil Twilight 5:45 AM EDT 8:58 PM EDT
Nautical Twilight 5:09 AM EDT 9:34 PM EDT
Astronomical Twilight 4:29 AM EDT 10:13 PM EDT
Moon 12:41 PM EDT (5/17) 1:23 AM EDT (5/17)
Length of Visible Light 15h 13m
Length of Day
14h 14m
Waxing Crescent, 45% of the Moon is Illuminated
May 17
Waxing Crescent
May 18
First Quarter
May 25
Full
May 31
Last Quarter
Jun 8
New

Hourly Weather History & Observations

Time (EDT) Temp. Dew Point Humidity Pressure Visibility Wind Dir Wind Speed Gust Speed Precip Events Conditions
12:52 AM 63.0 °F 54.0 °F 72% 30.01 in 10.0 mi West 4.6 mph - N/A   Scattered Clouds
1:52 AM 61.0 °F 53.1 °F 75% 30.00 in 10.0 mi Calm Calm - N/A   Clear
2:52 AM 60.1 °F 53.1 °F 78% 30.00 in 10.0 mi WSW 3.5 mph - N/A   Clear
3:52 AM 60.1 °F 53.1 °F 78% 30.01 in 10.0 mi WSW 3.5 mph - N/A   Clear
4:52 AM 60.1 °F 53.1 °F 78% 30.02 in 10.0 mi SW 4.6 mph - N/A   Clear
5:52 AM 57.9 °F 53.1 °F 84% 30.05 in 10.0 mi West 4.6 mph - N/A   Clear
6:52 AM 61.0 °F 54.0 °F 78% 30.06 in 10.0 mi Calm Calm - N/A   Clear
7:52 AM 64.9 °F 55.0 °F 70% 30.07 in 10.0 mi Calm Calm - N/A   Clear
8:52 AM 68.0 °F 55.0 °F 63% 30.09 in 10.0 mi West 3.5 mph - N/A   Clear
9:52 AM 71.1 °F 55.9 °F 59% 30.08 in 10.0 mi West 4.6 mph - N/A   Clear
10:52 AM 75.0 °F 54.0 °F 48% 30.08 in 10.0 mi Calm Calm - N/A   Partly Cloudy
11:52 AM 75.0 °F 51.1 °F 43% 30.08 in 10.0 mi NNW 3.5 mph - N/A   Mostly Cloudy
12:52 PM 78.1 °F 50.0 °F 37% 30.06 in 10.0 mi Calm Calm - N/A   Scattered Clouds
1:52 PM 80.1 °F 48.9 °F 34% 30.05 in 10.0 mi WNW 6.9 mph - N/A   Scattered Clouds
2:52 PM 78.1 °F 48.9 °F 36% 30.04 in 10.0 mi Calm Calm - N/A   Overcast
3:52 PM 77.0 °F 50.0 °F 39% 30.04 in 10.0 mi South 6.9 mph - N/A   Overcast
4:52 PM 75.0 °F 53.1 °F 46% 30.03 in 10.0 mi Variable 4.6 mph - N/A   Mostly Cloudy
5:06 PM 75.2 °F 53.6 °F 47% 30.12 in 10.0 mi SSE 6.9 mph - N/A Thunderstorm Mostly Cloudy
5:21 PM 73.4 °F 53.6 °F 50% 30.12 in 10.0 mi South 5.8 mph - N/A   Mostly Cloudy
5:52 PM 73.9 °F 51.1 °F 45% 30.05 in 10.0 mi Calm Calm - N/A   Overcast
6:43 PM 66.2 °F 57.2 °F 73% 30.14 in 10.0 mi NE 5.8 mph - 0.00 in Thunderstorm Overcast
6:52 PM 66.9 °F 57.0 °F 70% 30.07 in 10.0 mi ENE 3.5 mph - 0.00 in Thunderstorm Thunderstorm
7:11 PM 66.2 °F 57.2 °F 73% 30.16 in 10.0 mi North 5.8 mph - N/A   Overcast
7:52 PM 64.9 °F 57.0 °F 75% 30.08 in 10.0 mi Calm Calm - N/A   Overcast
8:52 PM 64.0 °F 57.0 °F 78% 30.09 in 10.0 mi Calm Calm - N/A   Overcast
9:52 PM 64.0 °F 57.9 °F 80% 30.08 in 10.0 mi East 4.6 mph - N/A   Overcast
10:52 PM 64.0 °F 57.9 °F 80% 30.09 in 10.0 mi Calm Calm - N/A   Overcast
11:52 PM 64.0 °F 57.9 °F 80% 30.09 in 9.0 mi Calm Calm - 0.00 in Rain Light Rain